EW3816 Weather Reports


Display with metric or nautical units.
time (UTC)temp
F
wind
direction
speed
MPH
gust
MPH
rain 1hr
in
rain 24hr
in
rain mn
in
humidity
%
barometer
mb
20260906201340 104 162 3.0 7.0 0.00 0.00 0.00 35 982.9
20260906200357 103 220 2.0 3.0 0.00 0.00 0.00 34 780.8
20260906200340 105 305 8.0 8.0 0.00 0.00 0.00 34 983.1
20260906195357 103 131 3.0 5.0 0.00 0.00 0.00 33 780.8
20260906195340 105 63 7.0 11.0 0.00 0.00 0.00 34 983.1
20260906194357 103 239 3.0 6.0 0.00 0.00 0.00 34 780.8
20260906194339 105 226 0.0 5.0 0.00 0.00 0.00 35 983.3
20260906193357 102 321 3.0 5.0 0.00 0.00 0.00 35 780.6
20260906193318 102 290 6.0 6.0 0.00 0.00 0.00 35 983.3
20260906192357 102 136 2.0 4.0 0.00 0.00 0.00 35 780.7
20260906192257 104 175 3.0 5.0 0.00 0.00 0.00 35 983.6
20260906191357 102 87 5.0 7.0 0.00 0.00 0.00 36 780.7
20260906190357 102 182 3.0 5.0 0.00 0.00 0.00 36 780.7
20260906190235 104 100 4.0 8.0 0.00 0.00 0.00 35 983.7
20260906185356 101 51 5.0 7.0 0.00 0.00 0.00 36 780.6
20260906185235 104 340 5.0 8.0 0.00 0.00 0.00 35 983.8
20260906184356 102 66 4.0 9.0 0.00 0.00 0.00 35 780.7
20260906184235 104 251 0.0 13.0 0.00 0.00 0.00 35 984.1
20260906183356 101 107 2.0 3.0 0.00 0.00 0.00 37 780.6
20260906183235 103 54 3.0 10.0 0.00 0.00 0.00 37 984.0
20260906182356 101 73 9.0 12.0 0.00 0.00 0.00 38 780.6
20260906182214 104 88 8.0 11.0 0.00 0.00 0.00 37 984.1
20260906181356 101 115 4.0 5.0 0.00 0.00 0.00 38 780.6
20260906181214 104 94 4.0 6.0 0.00 0.00 0.00 38 984.4
20260906180356 102 96 5.0 7.0 0.00 0.00 0.00 37 780.7
20260906180213 104 107 3.0 8.0 0.00 0.00 0.00 36 984.5
20260906175356 101 129 2.0 3.0 0.00 0.00 0.00 37 780.7
20260906175152 104 226 5.0 6.0 0.00 0.00 0.00 36 984.9
20260906174355 100 133 1.0 2.0 0.00 0.00 0.00 37 780.6
20260906174152 102 164 9.0 9.0 0.00 0.00 0.00 37 985.0
20260906173355 100 116 3.0 6.0 0.00 0.00 0.00 39 780.6
20260906173152 104 166 3.0 7.0 0.00 0.00 0.00 38 985.0
20260906172355 99 224 2.0 3.0 0.00 0.00 0.00 40 780.5
20260906172152 101 16 2.0 9.0 0.00 0.00 0.00 39 985.2
20260906171355 100 100 3.0 4.0 0.00 0.00 0.00 39 780.5
20260906171152 101 179 4.0 6.0 0.00 0.00 0.00 38 985.4
20260906170334 98 89 3.0 5.0 0.00 0.00 0.00 41 780.5
20260906170131 100 239 5.0 6.0 0.00 0.00 0.00 39 985.4
20260906165334 97 90 5.0 8.0 0.00 0.00 0.00 43 780.4
20260906165130 100 7 3.0 13.0 0.00 0.00 0.00 41 985.5
20260906164334 98 38 3.0 4.0 0.00 0.00 0.00 43 780.4
20260906164130 100 355 9.0 11.0 0.00 0.00 0.00 41 985.8
20260906163333 97 39 0.0 1.0 0.00 0.00 0.00 44 780.4
20260906163130 100 65 4.0 10.0 0.00 0.00 0.00 43 986.0
20260906162333 96 65 6.0 8.0 0.00 0.00 0.00 45 780.3
20260906162130 99 97 4.0 5.0 0.00 0.00 0.00 43 985.7
20260906161312 96 65 5.0 6.0 0.00 0.00 0.00 46 780.2
20260906161130 98 74 4.0 8.0 0.00 0.00 0.00 45 985.7
20260906160312 96 60 5.0 6.0 0.00 0.00 0.00 47 780.2
20260906160109 99 9 6.0 9.0 0.00 0.00 0.00 44 985.7
20260906155312 95 240 0.0 3.0 0.00 0.00 0.00 48 780.2
20260906155108 99 298 3.0 5.0 0.00 0.00 0.00 45 985.8
20260906154312 93 317 3.0 4.0 0.00 0.00 0.00 50 780.1
20260906154108 97 347 5.0 9.0 0.00 0.00 0.00 47 985.8
20260906153311 92 227 2.0 4.0 0.00 0.00 0.00 52 780.1
20260906153108 96 10 6.0 8.0 0.00 0.00 0.00 48 985.7
20260906152250 90 210 3.0 4.0 0.00 0.00 0.00 55 779.9
20260906152047 95 223 3.0 4.0 0.00 0.00 0.00 49 985.8
20260906151250 90 290 3.0 5.0 0.00 0.00 0.00 56 779.9
20260906151046 94 354 5.0 6.0 0.00 0.00 0.00 52 985.7
20260906150250 88 226 3.0 4.0 0.00 0.00 0.00 58 779.8
20260906150046 90 323 4.0 4.0 0.00 0.00 0.00 56 985.5
20260906145250 88 233 3.0 4.0 0.00 0.00 0.00 59 779.7
20260906145046 91 236 2.0 6.0 0.00 0.00 0.00 56 985.6
20260906144250 87 235 3.0 5.0 0.00 0.00 0.00 60 779.7
20260906144046 91 230 3.0 4.0 0.00 0.00 0.00 56 985.8
20260906143229 87 205 1.0 2.0 0.00 0.00 0.00 62 779.7
20260906143046 90 320 4.0 5.0 0.00 0.00 0.00 58 985.7
20260906142208 85 252 1.0 3.0 0.00 0.00 0.00 64 779.6
20260906142046 89 319 5.0 5.0 0.00 0.00 0.00 59 985.9
20260906141208 84 189 2.0 3.0 0.00 0.00 0.00 65 779.5
20260906141045 88 217 0.0 2.0 0.00 0.00 0.00 60 985.7
20260906140207 83 226 2.0 3.0 0.00 0.00 0.00 66 779.4
20260906140045 86 133 2.0 3.0 0.00 0.00 0.00 62 985.5
20260906135207 82 239 3.0 4.0 0.00 0.00 0.00 67 779.4
20260906135024 87 144 2.0 5.0 0.00 0.00 0.00 62 985.5
20260906134207 81 235 2.0 3.0 0.00 0.00 0.00 70 779.3
20260906134024 86 131 0.0 3.0 0.00 0.00 0.00 64 985.5
20260906133207 80 106 0.0 1.0 0.00 0.00 0.00 72 779.2
20260906133024 85 70 2.0 4.0 0.00 0.00 0.00 65 985.5
20260906132146 79 224 0.0 1.0 0.00 0.00 0.00 74 779.1
20260906132024 82 128 0.0 2.0 0.00 0.00 0.00 69 985.2
20260906131146 78 118 0.0 0.0 0.00 0.00 0.00 76 779.0
20260906131023 81 57 3.0 5.0 0.00 0.00 0.00 72 985.2
20260906130145 76 0 0.0 0.0 0.00 0.00 0.00 79 779.0
20260906130023 80 96 2.0 5.0 0.00 0.00 0.00 75 985.1
20260906125145 75 52 1.0 1.0 0.00 0.00 0.00 80 778.9
20260906125022 79 54 4.0 5.0 0.00 0.00 0.00 76 985.0
20260906124145 75 0 0.0 0.0 0.00 0.00 0.00 80 778.8
20260906124022 78 82 3.0 3.0 0.00 0.00 0.00 79 984.8
20260906123145 74 0 0.0 0.0 0.00 0.00 0.00 81 778.8
20260906123001 75 37 0.0 4.0 0.00 0.00 0.00 85 984.7
20260906122145 74 0 0.0 0.0 0.00 0.00 0.00 80 778.8
20260906122001 73 68 2.0 2.0 0.00 0.00 0.00 88 984.7
20260906121145 74 0 0.0 0.0 0.00 0.00 0.00 80 778.8
20260906121000 73 28 2.0 3.0 0.00 0.00 0.00 88 984.7
20260906120145 74 0 0.0 0.0 0.00 0.00 0.00 80 778.8
20260906120000 73 58 0.0 3.0 0.00 0.00 0.00 88 984.5
20260906115144 74 0 0.0 0.0 0.00 0.00 0.00 80 778.8
20260906114939 73 63 0.0 0.0 0.00 0.00 0.00 87 984.3
20260906114144 75 0 0.0 0.0 0.00 0.00 0.00 79 778.8
20260906113939 73 128 2.0 3.0 0.00 0.00 0.00 87 984.2
20260906113144 75 0 0.0 0.0 0.00 0.00 0.00 79 778.8
20260906112918 73 3 0.0 2.0 0.00 0.00 0.00 87 984.3
20260906112144 75 0 0.0 0.0 0.00 0.00 0.00 79 778.8
20260906111856 73 56 2.0 3.0 0.00 0.00 0.00 86 984.1
20260906111144 75 0 0.0 0.0 0.00 0.00 0.00 79 778.8
20260906110856 73 147 0.0 0.0 0.00 0.00 0.00 87 984.1
20260906110144 75 0 0.0 0.0 0.00 0.00 0.00 79 778.8
20260906105856 74 94 2.0 2.0 0.00 0.00 0.00 86 984.0
20260906105144 75 0 0.0 0.0 0.00 0.00 0.00 79 778.8
20260906104856 74 25 0.0 2.0 0.00 0.00 0.00 86 984.1
20260906104144 75 0 0.0 0.0 0.00 0.00 0.00 78 778.8
20260906103856 74 18 0.0 0.0 0.00 0.00 0.00 86 984.0
20260906103144 76 0 0.0 0.0 0.00 0.00 0.00 78 778.9
20260906102855 74 117 0.0 3.0 0.00 0.00 0.00 85 984.1
20260906102123 76 124 0.0 1.0 0.00 0.00 0.00 78 778.9
20260906101834 74 25 0.0 3.0 0.00 0.00 0.00 85 983.9
20260906101123 76 0 0.0 0.0 0.00 0.00 0.00 78 778.9
20260906100834 74 25 0.0 0.0 0.00 0.00 0.00 86 983.9
20260906100122 76 0 0.0 0.0 0.00 0.00 0.00 78 778.9
20260906095834 74 15 0.0 0.0 0.00 0.00 0.00 85 984.0
20260906095122 76 38 0.0 1.0 0.00 0.00 0.00 78 778.9
20260906094834 74 37 0.0 0.0 0.00 0.00 0.00 85 984.0
20260906094122 76 0 0.0 0.0 0.00 0.00 0.00 77 778.9
20260906093834 74 62 0.0 0.0 0.00 0.00 0.00 84 983.9
20260906093122 77 0 0.0 0.0 0.00 0.00 0.00 77 778.9
20260906092812 74 25 0.0 0.0 0.00 0.00 0.00 84 983.8
20260906092122 77 60 0.0 1.0 0.00 0.00 0.00 77 778.9
20260906091812 75 37 0.0 0.0 0.00 0.00 0.00 83 983.4
20260906091101 77 0 0.0 0.0 0.00 0.00 0.00 76 778.9
20260906090812 75 25 0.0 0.0 0.00 0.00 0.00 83 983.5
20260906090100 77 0 0.0 0.0 0.00 0.00 0.00 76 779.0
20260906085812 75 50 0.0 2.0 0.00 0.00 0.00 82 983.5
20260906085100 77 110 0.0 2.0 0.00 0.00 0.00 75 779.0
20260906084812 75 75 0.0 2.0 0.00 0.00 0.00 81 983.3
20260906084100 77 0 0.0 0.0 0.00 0.00 0.00 74 779.0
20260906083751 76 44 0.0 0.0 0.00 0.00 0.00 80 983.3
20260906083100 78 231 0.0 1.0 0.00 0.00 0.00 74 779.0
20260906082751 76 32 0.0 0.0 0.00 0.00 0.00 80 983.4
20260906082039 78 0 0.0 0.0 0.00 0.00 0.00 73 779.0
20260906081750 76 46 0.0 2.0 0.00 0.00 0.00 79 983.4
20260906081038 78 0 0.0 0.0 0.00 0.00 0.00 73 779.0
20260906080750 77 37 0.0 0.0 0.00 0.00 0.00 78 983.4
20260906075729 77 284 0.0 0.0 0.00 0.00 0.00 78 983.5
20260906075038 78 0 0.0 0.0 0.00 0.00 0.00 73 779.0
20260906074729 77 75 0.0 0.0 0.00 0.00 0.00 78 983.4
20260906074038 79 0 0.0 0.0 0.00 0.00 0.00 72 779.1
20260906073728 77 66 0.0 0.0 0.00 0.00 0.00 77 983.4
20260906073038 79 0 0.0 0.0 0.00 0.00 0.00 72 779.1
20260906072728 77 54 0.0 2.0 0.00 0.00 0.00 77 983.4
20260906072038 79 0 0.0 0.0 0.00 0.00 0.00 71 779.1
20260906071728 78 75 0.0 0.0 0.00 0.00 0.00 76 983.4
20260906071038 79 0 0.0 0.0 0.00 0.00 0.00 71 779.1
20260906070707 78 333 0.0 0.0 0.00 0.00 0.00 74 983.2
20260906070038 80 0 0.0 0.0 0.00 0.00 0.00 70 779.1
20260906065707 79 40 2.0 2.0 0.00 0.00 0.00 75 983.2
20260906065037 80 0 0.0 0.0 0.00 0.00 0.00 70 779.1
20260906064707 78 62 0.0 0.0 0.00 0.00 0.00 75 983.2
20260906064037 80 0 0.0 0.0 0.00 0.00 0.00 68 779.2
20260906063707 79 75 0.0 2.0 0.00 0.00 0.00 73 983.2
20260906063037 81 0 0.0 0.0 0.00 0.00 0.00 68 779.2
20260906062706 79 32 0.0 0.0 0.00 0.00 0.00 72 983.3
20260906062037 81 262 0.0 1.0 0.00 0.00 0.00 68 779.2
20260906061706 79 333 0.0 0.0 0.00 0.00 0.00 72 983.4
20260906061037 81 0 0.0 0.0 0.00 0.00 0.00 67 779.2
20260906060706 80 338 2.0 3.0 0.00 0.00 0.00 71 983.3
20260906060037 82 331 0.0 0.0 0.00 0.00 0.00 67 779.3
20260906055706 80 22 0.0 2.0 0.00 0.00 0.00 71 983.3
20260906055037 82 0 0.0 0.0 0.00 0.00 0.00 65 779.3
20260906054644 80 25 0.0 0.0 0.00 0.00 0.00 70 983.3
20260906054036 82 52 0.0 2.0 0.00 0.00 0.00 65 779.3
20260906053644 80 59 2.0 3.0 0.00 0.00 0.00 70 983.2
20260906053036 83 0 0.0 0.0 0.00 0.00 0.00 63 779.4
20260906052644 80 50 0.0 0.0 0.00 0.00 0.00 69 983.0
20260906052036 83 0 0.0 0.0 0.00 0.00 0.00 63 779.4
20260906051644 81 61 2.0 2.0 0.00 0.00 0.00 68 982.9
20260906051036 84 0 0.0 0.0 0.00 0.00 0.00 63 779.4
20260906050644 82 297 0.0 0.0 0.00 0.00 0.00 67 983.0
20260906050015 84 0 0.0 0.0 0.00 0.00 0.00 62 779.4
20260906045644 82 322 0.0 0.0 0.00 0.00 0.00 65 983.1
20260906045015 85 92 0.0 1.0 0.00 0.00 0.00 60 779.5
20260906044622 83 96 0.0 2.0 0.00 0.00 0.00 64 983.3
20260906044015 86 0 0.0 0.0 0.00 0.00 0.00 58 779.6
20260906043622 84 4 0.0 3.0 0.00 0.00 0.00 63 983.3
20260906043015 87 107 1.0 1.0 0.00 0.00 0.00 57 779.6
20260906042622 84 117 0.0 0.0 0.00 0.00 0.00 61 983.3
20260906042014 87 0 0.0 0.0 0.00 0.00 0.00 55 779.7
20260906041622 85 216 0.0 0.0 0.00 0.00 0.00 59 983.2
20260906041014 88 106 1.0 1.0 0.00 0.00 0.00 55 779.7
20260906040622 86 224 0.0 3.0 0.00 0.00 0.00 57 983.2
20260906035953 88 0 0.0 0.0 0.00 0.00 0.00 55 779.7
20260906035622 86 113 2.0 2.0 0.00 0.00 0.00 58 983.2
20260906034932 89 0 0.0 0.0 0.00 0.00 0.00 54 779.7
20260906034622 86 89 0.0 4.0 0.00 0.00 0.00 58 983.0
20260906033911 90 109 0.0 2.0 0.00 0.00 0.00 52 779.8
20260906033621 88 92 0.0 0.0 0.00 0.00 0.00 54 982.9
20260906032849 90 138 1.0 2.0 0.00 0.00 0.00 51 779.9
20260906032621 89 159 0.0 4.0 0.00 0.00 0.00 53 983.1
20260906031849 91 100 1.0 1.0 0.00 0.00 0.00 50 779.9
20260906031621 90 147 0.0 3.0 0.00 0.00 0.00 51 983.2
20260906030849 91 214 3.0 4.0 0.00 0.00 0.00 49 779.9
20260906030600 90 180 2.0 4.0 0.00 0.00 0.00 50 983.2
20260906025828 91 188 4.0 5.0 0.00 0.00 0.00 49 779.9
20260906025600 90 210 5.0 5.0 0.00 0.00 0.00 50 983.0
20260906024807 91 197 3.0 5.0 0.00 0.00 0.00 49 779.9
20260906024600 90 224 0.0 5.0 0.00 0.00 0.00 50 983.0
20260906023807 91 193 3.0 6.0 0.00 0.00 0.00 48 779.9
20260906023600 91 135 3.0 7.0 0.00 0.00 0.00 50 983.0
20260906022806 91 200 2.0 3.0 0.00 0.00 0.00 48 780.0
20260906022559 90 208 0.0 3.0 0.00 0.00 0.00 50 983.0
20260906021806 91 118 3.0 3.0 0.00 0.00 0.00 48 779.9
20260906021538 88 77 3.0 3.0 0.00 0.00 0.00 53 982.8
20260906020806 91 125 1.0 2.0 0.00 0.00 0.00 50 779.9
20260906020538 88 88 5.0 6.0 0.00 0.00 0.00 53 982.7
20260906015806 91 0 0.0 0.0 0.00 0.00 0.00 47 779.9
20260906015538 88 38 0.0 0.0 0.00 0.00 0.00 52 982.6
20260906014806 92 0 0.0 0.0 0.00 0.00 0.00 46 780.0
20260906014538 89 230 0.0 0.0 0.00 0.00 0.00 51 982.4
20260906013806 92 0 0.0 0.0 0.00 0.00 0.00 46 780.0
20260906013538 89 193 0.0 0.0 0.00 0.00 0.00 50 982.3
20260906012806 93 0 0.0 0.0 0.00 0.00 0.00 45 780.0
20260906012537 90 193 0.0 0.0 0.00 0.00 0.00 49 982.0
20260906011806 93 0 0.0 0.0 0.00 0.00 0.00 46 780.0
20260906011516 90 224 0.0 0.0 0.00 0.00 0.00 48 982.2
20260906010805 94 95 0.0 1.0 0.00 0.00 0.00 42 780.1
20260906010516 91 224 0.0 0.0 0.00 0.00 0.00 46 982.0
20260906005805 96 0 0.0 0.0 0.00 0.00 0.00 40 780.2
20260906005455 92 224 0.0 0.0 0.00 0.00 0.00 45 982.2
20260906004744 97 0 0.0 0.0 0.00 0.00 0.00 38 780.3
20260906004454 93 224 0.0 0.0 0.00 0.00 0.00 42 981.7
20260906003744 98 76 1.0 1.0 0.00 0.00 0.00 37 780.4
20260906003454 95 50 0.0 0.0 0.00 0.00 0.00 40 981.7
20260906002723 98 112 1.0 1.0 0.00 0.00 0.00 36 780.4
20260906002433 97 133 2.0 4.0 0.00 0.00 0.00 38 981.9
20260906001722 98 132 1.0 2.0 0.00 0.00 0.00 36 780.4
20260906001433 97 129 0.0 5.0 0.00 0.00 0.00 38 981.6
20260906000722 99 106 1.0 2.0 0.00 0.00 0.00 35 780.4
20260906000433 98 170 5.0 6.0 0.00 0.00 0.00 37 981.6
20260905235701 99 134 2.0 2.0 0.00 0.00 0.00 35 780.5
20260905235433 98 221 3.0 4.0 0.00 0.00 0.00 37 981.6
20260905234640 99 127 3.0 4.0 0.00 0.00 0.00 36 780.5
20260905234433 98 140 0.0 6.0 0.00 0.00 0.00 37 981.6
20260905233640 100 152 2.0 5.0 0.00 0.00 0.00 35 780.5
20260905233432 99 201 2.0 6.0 0.00 0.00 0.00 37 981.3
20260905232640 100 138 1.0 2.0 0.00 0.00 0.00 34 780.6
20260905232432 99 218 0.0 4.0 0.00 0.00 0.00 36 981.3
20260905231639 100 91 3.0 5.0 0.00 0.00 0.00 35 780.5
20260905231432 99 88 7.0 8.0 0.00 0.00 0.00 36 981.4
20260905230639 101 129 2.0 3.0 0.00 0.00 0.00 34 780.6
20260905230432 100 162 5.0 9.0 0.00 0.00 0.00 36 981.4
20260905225639 102 213 1.0 3.0 0.00 0.00 0.00 33 780.7
20260905225432 100 224 8.0 8.0 0.00 0.00 0.00 36 981.3
20260905224639 102 88 1.0 3.0 0.00 0.00 0.00 32 780.7
20260905224432 100 75 2.0 9.0 0.00 0.00 0.00 36 981.4
20260905223639 102 214 3.0 4.0 0.00 0.00 0.00 32 780.7
20260905223411 100 190 3.0 5.0 0.00 0.00 0.00 35 981.4
20260905222639 101 127 2.0 4.0 0.00 0.00 0.00 33 780.7
20260905222410 100 207 4.0 8.0 0.00 0.00 0.00 36 981.5
20260905221639 101 126 3.0 5.0 0.00 0.00 0.00 34 780.6
20260905221410 100 69 4.0 9.0 0.00 0.00 0.00 36 981.7
20260905220639 101 94 3.0 4.0 0.00 0.00 0.00 34 780.6
20260905220410 100 108 5.0 7.0 0.00 0.00 0.00 37 981.6
20260905215617 101 188 2.0 3.0 0.00 0.00 0.00 34 780.6
20260905215410 100 250 2.0 11.0 0.00 0.00 0.00 35 982.0
20260905214617 100 124 3.0 4.0 0.00 0.00 0.00 35 780.6
20260905214410 100 89 5.0 13.0 0.00 0.00 0.00 37 981.9
20260905213556 101 125 2.0 3.0 0.00 0.00 0.00 35 780.6
20260905213410 101 156 7.0 9.0 0.00 0.00 0.00 35 981.8
20260905212556 101 93 5.0 7.0 0.00 0.00 0.00 34 780.6
20260905212349 103 107 3.0 7.0 0.00 0.00 0.00 35 982.0
20260905211556 102 150 2.0 5.0 0.00 0.00 0.00 34 780.7
20260905211348 102 225 5.0 11.0 0.00 0.00 0.00 35 982.1
20260905210556 102 96 3.0 4.0 0.00 0.00 0.00 34 780.7
20260905210348 104 82 5.0 6.0 0.00 0.00 0.00 35 982.2
20260905205555 101 163 4.0 6.0 0.00 0.00 0.00 35 780.6
20260905205348 103 243 3.0 7.0 0.00 0.00 0.00 35 982.4
20260905204555 101 128 3.0 5.0 0.00 0.00 0.00 35 780.6
20260905204327 103 137 3.0 8.0 0.00 0.00 0.00 36 982.5
20260905203555 100 70 5.0 6.0 0.00 0.00 0.00 36 780.6
20260905203327 103 163 3.0 7.0 0.00 0.00 0.00 35 982.6
20260905202555 100 136 3.0 5.0 0.00 0.00 0.00 36 780.6
20260905202326 102 91 6.0 10.0 0.00 0.00 0.00 36 982.9
20260905201534 100 87 5.0 6.0 0.00 0.00 0.00 36 780.6